Tracking 29493 objects as of 9-Sep-2024
HD Live streaming from Space Station
objects crossing your sky now

THORAD DELTA 1 DEB

Track THORAD DELTA 1 DEB now!
10-day predictions


NORAD ID: 8146
Int'l Code: 1974-089Q
Perigee: 1,305.9 km
Apogee: 1,597.1 km
Inclination: 101.9 °
Period: 114.8 minutes
Semi major axis: 7822 km
RCS: 0.2088 m2 (medium)
Launch date: November 15, 1974
Source: United States (US)
Launch site: AIR FORCE WESTERN TEST RANGE (AFWTR)

Note: This is SATELLITE DEBRIS
Your satellite tracking list
Your tracking list is empty




NASA's NSSDC Master Catalog

Two Line Element Set (TLE):
1 08146U 74089Q   24252.90332444  .00000050  00000-0  56562-3 0  9993
2 08146 101.9454 232.0775 0186136 301.4658 113.2344 12.54824198280050
Source of the keplerian elements: AFSPC